星链-30954 (STARLINK-30954 )

导读

STARLINK-30954是美国SpaceX星链星座的卫星,于2023年11月22日发射,星链计划旨在构建全球卫星互联网星座,为全球提供高速低延迟宽带网络服务。该卫星延续星链系列设计,承担通信组网任务,进一步扩充了星链星座规模,推动全球卫星互联网覆盖能力提升。

基本信息
目录编号:
58407
目录名称:
STARLINK-30954
国际标识:
2023-180F
轨道中心:
EARTH
卫星名称:
星链-30954
卫星全名:
星链-30954 (STARLINK-30954 )
卫星状态:
在轨 (已飞行1017 天)
发射日期:
2023-11-22 UTC
国别 :
美国 (US)
星等 :
--
轨道信息
数据来源 国际轨道数据
星历时间: 2026-09-04T07:23:32+0800
10小时前
查看轨道信息
半长轴: 6861.187km
偏心率: 0.0001155
轨道倾角: 43.002°
近地点辐角 271.368°
升交点赤经 125.580°
平近点角 88.704°
近地点: 482.257km
远地点: 483.843km
周期: 94.267分钟
每日圈数: 15.275798
详细信息
固有亮度:
5
最大亮度:
0.3
卫星平台:
Starlink v2.0 mini
覆盖范围:
全球
运营商:
太空探索技术公司
运营商所在国:
美国
制造商(研发单位):
太空探索技术公司
制造商所在国:
美国
使用方式:
暂无
卫星简介
星链(Starlink)计划是由太空探索技术公司(SpaceX)提出的一个巨型低轨卫星互联网星座项目,计划在2019年至2024年间在太空搭建由约1.2万颗卫星组成的“星链”网络,其中1584颗将部署在地球上空550千米处的近地轨道,并从2020年开始工作。该卫星仍在工作。
2D轨道图
3D轨道图
轨道高度分析图
轨道倾角分析图
轨道综合分析图
查看轨道综合分析图
交会数据列表
事件ID 空间交会对象 最接近时刻(TCA) 交会距离 交会风险概率(CRP) 交会风险指数(CRI) 操作
CDM_260904-133705-840706-356622
2026-09-04T
13:37:30+0000
0.746 km
远距离
5.36331E-5 中风险 0.7
CDM_260905-043105-840706-356621
2026-09-05T
04:31:57+0000
1.578 km
极远距离
4.332084E-6 低风险 0.48
CDM_260904-151105-840706-356622
2026-09-04T
15:11:39+0000
1.787 km
极远距离
2.986752E-6 低风险 0.45
CDM_260905-025705-840706-356621
2026-09-05T
02:57:48+0000
1.973 km
极远距离
2.289284E-6 低风险 0.42
CDM_260905-085605-363905-840721
2026-09-05T
08:56:46+0000
2.953 km
极远距离
4.467654E-7 极低风险 0.28